Location: Peterborough
(44.3091°N, 78.3197°W)
Time: 17:04:08
(UTC-04:00)

Explorer 7 - Pass Details

Date: 23 March 2023
Orbit: 477 x 653 km, 50.3° (Epoch: 04 June)

Event Time Altitude Azimuth Distance (km) Brightness Sun altitude
Rises 21:25:53 0° 283° (WNW) 2,793 11.9 -21.0°
Reaches altitude 10° 21:28:22 10° 292° (WNW) 1,860 10.7 -21.4°
Maximum altitude 21:32:15 35° 359° (N) 896 8.1 -22.1°
Enters shadow 21:33:14 30° 29° (NNE) 976 8.0 -22.2°
Drops below altitude 10° 21:35:57 10° 66° (ENE) 1,757 - -22.7°
Sets 21:38:14 0° 76° (ENE) 2,616 - -23.0°
